Theta_e
321 322 325 327 332 330 329 328 325 328 329 328 331 331 339 341 344 347 331 337 340 339 340 338 338 338 337 337 337 336 334 335 335 335 335 334 333 332 332 332 330 333 336 336 337 337 338 338 338
323 323 326 329 331 331 326 327 328 328 331 333 334 334 336 342 333 332 331 339 340 341 340 339 338 338 337 337 336 335 335 334 333 334 335 334 334 335 336 334 333 331 330 332 336 336 336 336 336
318 323 329 329 327 328 326 329 328 327 327 330 333 334 336 336 320 325 339 340 340 341 339 339 338 338 337 336 336 336 335 333 332 331 333 334 335 336 336 336 335 335 334 336 338 337 335 336 335
320 326 327 328 330 326 328 328 327 328 327 327 329 334 323 317 317 327 338 338 338 338 337 336 337 337 337 337 336 335 334 334 334 334 332 332 333 334 332 332 332 332 332 332 337 337 337 334 335
321 328 327 326 325 324 328 327 329 329 327 327 328 334 321 314 320 331 336 336 336 335 335 336 337 337 336 335 334 334 334 334 334 333 333 334 332 331 330 330 331 330 329 329 329 332 333 335 335
326 324 326 327 325 325 328 326 328 327 327 326 327 331 319 313 314 318 322 325 325 323 320 320 323 326 331 334 335 335 335 335 335 335 335 333 333 334 333 332 330 328 330 331 331 328 327 331 333
326 325 324 325 325 327 328 326 327 326 326 328 323 328 315 312 311 312 314 314 314 314 314 314 314 316 313 311 318 325 328 330 332 332 333 334 334 334 334 334 333 330 330 330 330 330 328 326 332
324 325 327 325 323 326 326 324 324 325 325 318 320 326 319 310 309 309 310 310 310 310 311 311 310 311 311 309 307 306 306 306 306 308 311 316 324 329 333 334 333 332 329 330 330 329 330 326 330
322 327 325 325 324 325 322 324 319 313 316 318 317 315 310 310 309 309 309 309 309 309 310 310 310 309 309 310 311 310 311 308 306 305 305 305 305 307 316 329 332 332 331 330 332 329 327 329 330
323 326 325 321 321 323 321 320 319 315 317 318 313 308 308 309 309 311 310 309 308 309 309 310 310 310 309 310 310 310 310 311 310 308 306 306 306 305 305 305 313 326 331 331 328 329 324 326 330
321 322 318 319 318 315 317 316 317 315 316 318 315 308 306 307 307 307 307 307 307 308 308 309 310 309 310 308 310 310 310 309 310 311 308 307 307 306 306 305 305 305 316 330 329 328 329 325 327
320 319 319 315 312 312 312 310 311 311 313 307 306 307 306 305 305 306 306 306 306 307 309 308 309 310 308 309 309 309 309 308 309 309 308 309 308 309 308 307 306 306 305 306 323 330 328 329 326
319 318 316 316 309 308 308 308 308 307 308 305 305 305 305 304 305 306 306 306 306 306 308 309 309 309 308 308 308 308 308 308 308 307 308 308 308 309 308 309 309 307 306 306 305 312 327 328 329
310 313 315 309 309 308 306 306 307 306 305 306 304 303 303 304 304 305 305 305 306 306 308 308 308 308 307 306 306 306 306 306 305 305 304 305 306 307 307 308 309 310 310 308 307 306 305 319 328
308 309 312 309 306 306 304 303 304 304 305 305 304 303 303 303 305 304 304 305 305 306 308 308 307 305 305 305 304 304 303 303 303 303 303 303 303 304 305 305 306 307 309 310 311 309 308 305 305
307 307 307 308 307 304 303 304 307 303 303 303 302 301 303 303 303 305 305 305 305 307 307 306 304 304 304 303 302 302 301 301 301 301 301 301 301 301 302 303 304 305 306 307 309 311 311 310 308
307 307 305 306 305 305 303 305 303 303 303 302 302 301 302 303 304 306 305 304 307 306 305 304 304 303 303 302 301 301 300 300 300 300 300 299 299 299 300 300 301 302 303 305 306 308 309 310 310
309 305 305 306 303 303 303 302 303 302 302 301 302 301 300 302 304 306 305 305 305 304 303 303 303 302 301 300 300 299 299 299 299 298 298 298 297 298 298 298 298 299 300 301 303 305 307 309 310
306 305 306 304 302 302 301 302 302 303 301 301 301 301 300 301 304 306 305 304 304 303 303 302 302 301 300 299 298 297 297 296 296 296 296 296 296 296 296 296 296 297 298 299 300 302 304 305 308
306 305 304 303 301 300 301 302 303 303 303 301 301 301 301 302 303 304 304 303 303 303 302 302 301 300 299 297 296 295 295 295 295 295 295 296 296 296 295 295 296 296 297 298 299 299 301 303 305
304 304 305 304 302 301 302 305 306 306 306 306 305 303 301 301 305 303 303 303 303 303 302 301 300 299 297 296 295 294 294 294 294 294 294 294 294 294 294 294 294 294 294 295 296 298 300 300 302
304 302 302 303 304 310 306 309 309 306 305 305 304 303 302 302 305 303 302 303 303 302 301 300 299 297 296 295 294 293 293 293 293 293 293 293 292 293 293 293 293 293 293 294 295 296 297 298 299
304 302 303 304 305 305 306 306 309 306 306 305 304 303 302 303 304 303 302 303 302 301 300 299 298 297 295 295 294 293 292 292 292 292 291 291 291 291 292 292 292 292 292 293 293 294 295 296 297
302 304 304 305 306 307 308 306 310 306 306 305 304 304 304 305 304 302 303 302 301 300 300 298 297 296 295 294 293 292 292 291 291 290 290 290 289 289 289 290 290 291 291 291 291 292 293 294 295
304 303 313 311 305 308 306 306 307 305 305 305 305 304 304 304 302 301 299 299 301 300 299 297 296 295 294 293 292 292 291 290 290 290 289 289 288 288 288 288 289 289 289 290 290 291 292 292 293
303 308 318 312 318 313 301 302 304 303 303 303 304 304 304 303 302 300 299 299 300 299 298 296 295 294 293 292 292 291 290 290 289 289 288 288 287 287 287 288 288 288 289 289 290 290 291 291 292
302 302 302 306 297 305 308 305 306 302 303 301 301 302 303 303 303 301 298 299 299 299 297 295 294 293 292 292 291 290 290 289 289 288 288 288 287 287 287 286 287 287 287 288 288 289 290 290 291
301 299 304 304 308 309 312 311 306 302 300 301 301 300 301 302 303 300 297 298 298 298 296 295 294 293 292 291 291 290 289 289 289 288 287 287 286 286 286 286 286 286 287 287 287 288 289 289 291
300 303 304 306 310 314 314 313 307 304 301 300 300 299 300 302 301 299 296 298 298 297 295 294 293 292 291 291 290 289 289 288 288 287 286 285 284 284 285 285 285 285 286 286 287 288 288 289 290
300 303 305 311 306 304 307 310 304 303 304 302 301 300 301 301 301 299 296 297 297 296 296 294 292 291 291 290 289 289 288 288 287 286 285 285 284 284 284 284 285 286 286 287 287 287 288 289 289
Wind_Speed
5 4 6 9 4 4 9 11 10 5 3 4 4 4 11 10 4 4 10 8 8 6 5 6 6 6 5 3 3 3 3 2 3 3 3 3 3 3 3 3 2 3 3 3 3 7 9 12 13
5 8 8 4 5 7 8 8 8 3 10 9 4 5 3 5 10 6 4 9 9 14 12 9 8 6 4 3 2 2 2 3 2 2 3 4 5 5 6 6 6 6 6 6 6 6 8 11 10
7 8 4 4 6 10 9 7 8 3 10 4 4 2 4 5 7 5 7 9 11 15 12 10 8 6 4 3 1 1 2 3 4 6 6 7 7 8 9 9 9 10 9 8 8 10 10 12 13
6 5 4 5 12 12 4 3 10 6 5 2 4 10 5 9 4 6 8 9 9 11 10 10 8 5 4 3 1 2 3 4 6 7 8 9 10 11 12 13 13 13 14 14 12 12 13 14 16
10 4 6 8 13 15 3 6 5 5 8 7 3 7 6 8 11 12 12 9 10 9 9 10 7 6 4 2 1 1 2 4 6 8 10 11 12 13 13 14 14 15 15 17 18 17 18 17 18
4 4 6 8 15 16 8 6 5 7 4 7 1 7 5 13 12 10 13 14 13 13 13 12 11 9 7 4 3 2 0 1 4 6 8 11 13 14 15 15 15 16 16 18 18 18 19 19 20
10 7 9 13 13 5 3 7 3 6 8 4 4 3 6 8 12 10 13 13 12 11 11 11 10 10 10 10 9 6 4 3 3 3 4 6 10 13 15 17 17 17 17 18 20 20 19 21 20
6 8 14 11 11 9 4 7 4 6 2 2 3 1 6 12 13 10 10 12 11 10 9 8 8 7 7 7 8 7 8 8 8 7 6 6 7 9 12 15 18 20 18 19 19 19 18 21 21
9 7 10 12 13 3 4 4 4 4 2 1 4 5 9 16 12 12 10 10 11 10 8 7 6 7 8 7 9 8 9 8 8 8 8 8 8 8 9 10 15 20 20 19 18 19 19 22 24
6 8 10 6 7 5 6 2 5 4 7 5 6 9 11 12 10 10 10 11 10 13 9 7 6 7 8 5 5 6 5 6 8 8 8 8 8 9 10 10 11 13 18 23 25 23 23 22 23
7 12 10 4 6 7 6 1 1 2 6 7 11 13 10 9 8 6 6 4 9 11 10 6 7 6 6 4 5 5 5 5 6 7 11 11 11 13 13 14 14 13 14 16 23 29 29 29 28
13 12 17 4 7 3 4 6 4 7 6 5 8 8 9 7 6 8 8 11 9 8 10 8 6 5 5 5 3 4 4 8 7 10 12 14 15 15 18 20 21 20 18 16 18 21 30 32 33
17 11 4 4 7 4 7 6 6 9 9 8 7 4 4 6 8 7 5 6 7 8 9 9 7 5 3 3 1 2 4 6 9 13 12 14 17 19 20 21 23 26 25 23 21 20 22 29 32
5 7 10 3 2 5 3 6 5 7 11 9 10 8 8 8 8 9 8 7 11 10 11 9 6 4 1 0 4 6 7 10 13 15 17 18 19 22 22 22 23 24 25 28 27 24 22 25 26
4 4 5 4 6 3 2 8 15 11 4 5 6 7 9 9 11 9 9 13 13 12 12 10 7 3 2 3 6 10 11 14 18 19 20 20 18 20 22 23 24 24 24 25 26 29 28 27 27
4 3 3 4 12 5 5 8 3 11 10 9 9 8 8 8 8 9 10 8 8 14 10 7 4 2 4 6 10 13 15 17 20 22 22 22 22 21 21 22 23 23 25 25 26 25 27 29 29
5 4 8 3 6 5 9 7 5 6 5 8 9 9 8 7 6 8 9 12 12 13 11 7 3 2 6 9 12 13 16 18 20 19 17 18 20 21 22 22 22 22 24 25 25 25 24 27 27
5 5 5 8 7 4 6 17 11 8 8 9 9 9 9 9 9 12 13 14 12 10 8 5 2 2 7 10 12 15 17 16 16 20 21 18 19 19 20 21 20 21 23 24 24 25 24 25 27
4 4 5 6 3 3 10 15 13 10 11 10 10 9 10 9 10 17 15 14 12 10 7 4 1 3 7 10 14 14 16 20 22 20 21 22 23 23 22 23 21 21 22 22 22 23 25 25 24
2 4 7 2 6 2 6 13 15 12 11 15 14 10 9 9 10 12 15 15 11 10 6 3 2 4 7 8 12 13 18 17 23 23 22 21 19 18 18 19 20 20 21 21 21 21 22 22 21
4 7 5 2 4 7 6 8 6 3 3 1 1 7 10 10 13 10 12 15 13 10 6 3 2 5 7 9 12 14 17 18 17 18 19 21 22 22 22 22 22 23 22 21 21 21 21 19 20
4 1 3 3 1 3 4 5 5 6 7 6 6 7 8 9 11 10 10 14 13 8 5 4 3 5 6 9 11 13 15 17 19 22 22 23 23 22 21 21 22 23 22 22 22 20 21 22 18
2 2 2 1 3 3 4 1 7 4 7 8 9 8 9 10 11 10 9 16 11 8 7 3 3 4 7 9 10 13 16 18 21 22 23 23 23 22 21 21 21 21 20 21 21 21 21 22 21
7 4 2 1 1 1 9 6 4 5 5 7 9 7 8 9 9 9 14 13 9 9 5 5 3 4 7 10 11 12 16 19 21 22 23 22 21 21 21 21 21 21 22 23 23 23 23 23 23
4 3 1 2 1 5 3 0 8 3 0 6 10 10 10 9 9 9 9 9 12 10 7 5 4 4 8 10 12 14 17 18 20 21 21 22 23 23 23 22 23 23 24 23 23 24 25 26 25
7 4 3 7 4 3 3 6 6 4 7 8 8 10 9 10 9 9 9 13 12 9 7 5 3 5 8 10 12 14 15 17 19 21 22 23 24 25 24 25 25 25 24 25 26 26 27 27 28
5 4 1 4 1 3 5 7 5 6 4 6 6 4 7 9 9 10 9 12 11 10 8 6 3 3 6 9 11 13 15 18 21 23 23 23 24 24 23 24 26 26 26 27 27 28 28 29 30
1 3 3 2 3 4 4 4 6 8 9 9 9 9 8 7 9 9 8 14 12 10 8 5 3 4 7 9 10 12 16 18 20 23 24 23 24 24 24 26 26 26 27 28 28 29 28 29 32
3 2 2 1 2 4 1 6 4 8 11 13 11 9 9 9 8 8 8 15 13 11 8 5 3 5 7 9 11 14 17 19 21 23 22 23 23 24 25 25 26 27 28 28 28 30 31 31 30
3 6 6 4 5 3 2 6 2 4 7 9 8 8 6 8 7 7 8 16 14 11 9 6 3 4 5 7 10 13 16 19 20 22 22 23 23 23 25 26 27 26 27 28 28 30 30 30 29
Wind_Direction
239 282 280 260 249 215 255 250 225 275 105 82 44 332 77 38 15 70 91 43 60 66 104 129 137 119 126 130 136 172 172 157 143 183 225 227 243 258 278 280 248 261 251 252 271 244 220 210 205
223 245 245 277 243 262 254 246 240 145 89 91 109 233 225 81 80 76 64 47 60 74 105 117 114 120 120 131 124 142 210 223 248 226 224 244 251 255 267 272 274 266 257 262 256 256 230 226 221
239 242 259 222 228 249 267 37 322 211 101 188 150 359 24 87 29 86 75 90 84 80 83 116 129 125 122 118 159 233 265 271 273 270 267 263 260 258 266 268 271 274 271 257 254 259 249 236 229
226 202 263 262 260 255 312 115 270 117 98 283 254 109 79 31 76 103 92 103 106 82 86 96 111 120 114 115 167 218 242 259 268 276 273 273 275 275 272 274 274 276 275 273 261 248 254 252 248
248 256 232 228 238 252 199 155 315 181 175 174 210 143 95 87 105 107 106 102 104 101 83 89 91 92 91 116 131 240 261 270 273 269 268 267 265 267 272 276 279 280 277 275 274 263 256 253 250
226 248 242 236 242 243 171 188 183 255 246 104 141 138 101 134 115 102 103 97 99 97 88 69 74 74 75 87 93 98 126 264 281 283 275 272 267 265 263 266 271 271 271 271 270 270 264 260 258
238 228 245 256 280 300 182 119 132 260 262 190 74 9 124 141 129 125 112 107 99 97 95 97 79 61 65 74 76 75 65 49 16 341 335 300 278 274 271 266 262 266 268 269 267 264 264 257 255
240 260 257 252 259 279 91 127 148 243 35 62 38 317 172 133 142 142 134 121 110 97 88 82 85 90 79 53 59 59 59 55 54 44 25 358 339 310 283 274 269 266 267 267 269 265 264 258 255
228 248 245 251 256 233 109 164 125 31 317 6 98 52 96 128 146 154 147 148 131 114 96 96 92 92 77 69 68 60 63 56 53 45 37 30 18 357 327 303 281 267 264 265 265 260 256 261 260
216 223 233 256 12 13 102 318 138 169 201 196 128 106 129 148 165 177 186 181 148 130 113 114 108 101 114 100 79 65 54 43 26 16 16 9 359 347 341 336 311 293 271 267 261 260 257 257 254
215 239 230 278 33 27 332 238 243 222 252 200 198 164 166 184 178 206 208 158 130 131 134 138 131 125 118 84 75 53 25 17 25 344 344 340 336 328 322 318 315 313 298 285 270 261 258 253 254
250 228 253 58 64 352 265 340 312 227 243 72 49 93 146 172 210 193 174 156 147 160 144 142 139 126 112 102 74 29 359 333 348 313 327 320 316 308 306 304 302 299 297 292 277 276 261 256 253
225 259 283 322 104 262 287 261 260 271 257 142 122 98 176 199 196 167 146 128 140 170 156 157 141 131 129 112 221 286 307 303 292 304 301 297 299 292 293 290 292 291 290 285 282 274 267 260 257
37 288 245 248 297 240 255 266 250 241 229 225 172 187 217 208 182 179 165 185 185 192 163 158 160 175 159 326 310 300 296 295 290 292 297 293 289 288 288 285 283 283 283 285 281 275 271 266 260
19 301 289 215 205 256 84 270 235 223 150 201 241 204 203 208 193 192 200 213 202 174 163 162 162 188 264 291 286 299 304 296 299 299 298 294 293 291 287 285 282 280 281 276 278 277 274 268 266
211 219 232 281 182 154 180 263 324 185 174 202 219 210 199 200 196 200 208 194 173 159 157 171 179 212 267 294 298 301 300 301 301 303 302 299 296 291 289 288 284 282 280 278 273 273 276 276 272
224 244 201 168 176 149 196 273 97 111 201 215 207 197 172 192 150 184 172 167 158 157 161 167 190 249 293 302 307 308 308 308 305 305 298 292 290 289 288 286 286 284 281 279 276 271 268 271 273
184 217 247 204 196 228 221 256 266 195 205 221 207 195 189 172 173 156 155 151 151 148 156 163 173 274 300 315 315 310 306 306 298 296 299 298 296 292 289 290 290 287 284 282 279 277 273 271 268
57 323 307 87 90 219 231 259 256 247 204 203 221 207 200 171 150 154 158 153 153 161 163 168 202 298 315 322 327 317 313 313 307 306 304 297 294 292 289 287 288 285 283 283 281 279 276 274 272
228 269 264 73 136 158 280 275 268 242 224 198 201 223 205 158 139 150 162 166 172 169 172 169 223 297 322 319 306 309 311 309 308 313 311 309 305 299 294 291 290 289 290 288 284 282 284 281 270
227 221 245 162 188 227 296 275 234 207 198 120 223 197 209 176 155 156 169 174 175 184 168 204 272 312 314 308 317 315 313 312 312 313 307 301 299 295 292 292 289 289 287 286 283 281 281 283 276
225 104 104 112 182 243 182 277 281 184 200 198 213 225 219 169 148 155 174 176 173 158 194 217 279 309 309 315 320 323 314 310 310 309 307 305 303 300 295 293 289 286 285 282 281 281 276 277 278
199 91 123 133 240 33 223 111 268 96 207 190 191 204 187 151 147 161 166 175 158 172 199 231 265 297 308 320 324 322 315 312 312 310 309 309 305 301 296 292 289 284 281 280 282 283 282 274 276
140 105 116 284 253 317 221 172 268 195 225 172 157 182 157 150 148 143 155 152 163 178 202 232 266 307 320 325 330 327 321 320 316 313 312 310 307 303 299 297 291 286 283 279 276 276 276 274 271
211 148 94 339 2 225 14 115 247 202 288 152 156 170 169 157 154 164 153 157 192 174 194 230 256 311 325 334 335 332 324 318 312 310 307 306 301 298 296 293 288 286 281 279 277 272 269 266 265
194 194 190 199 193 208 74 231 254 32 120 84 118 162 163 165 166 169 175 175 166 175 208 234 284 328 333 333 333 329 322 317 311 306 303 300 297 296 296 291 291 288 284 279 270 268 266 266 259
184 201 184 102 97 65 205 263 265 145 143 131 147 148 176 172 169 167 157 156 166 188 204 231 262 315 331 333 332 328 322 317 312 308 302 299 300 300 299 297 294 291 287 281 276 270 261 261 260
148 298 97 315 170 246 273 264 238 202 190 187 184 191 198 188 166 167 160 162 171 191 208 226 273 325 332 334 336 330 324 318 312 309 306 306 306 304 300 297 293 290 285 281 278 271 266 264 256
142 265 248 125 210 190 188 255 215 202 186 184 188 187 187 177 179 169 160 169 174 190 205 217 282 325 331 339 337 334 326 319 316 319 314 311 308 307 304 301 299 293 287 283 276 269 268 260 259
207 199 200 160 236 235 144 268 339 40 143 153 167 164 150 151 163 169 163 162 172 192 198 214 248 295 316 332 340 334 324 323 329 331 323 318 314 313 312 311 303 297 292 288 280 273 267 261 256